Regional Weather Roundup
Issued by NWS

Home | Current Version | Previous Version | Text Only | Print | Product List | Glossary On
Versions: 1 2 3 4 5 6 7 8 9 10 11 12 13 14 15 16 17 18 19 20 21 22 23 24 25 26 27 28 29 30 31 32 33 34 35 36 37 38 39 40 41 42 43 44 45 46 47 48 49 50
000
ASUS44 KMEG 271810
RWRTN
TENNESSEE HOURLY STATE WEATHER ROUNDUP
NATIONAL WEATHER SERVICE MEMPHIS TN
100 PM CDT TUE JUN 27 2017

TNZ002-004-019-021-049-052-054-088>092-271900-
WEST TENNESSEE

CITY           SKY/WX    TMP DP  RH WIND       PRES   REMARKS
MEMPHIS INTL   MOSUNNY   82  66  58 VRB5      30.10F
NWS MEMPHIS      N/A     80 N/A N/A MISG        N/A
JACKSON        SUNNY     79  63  57 CALM      30.11F
SOMERVILLE     SUNNY     79  64  61 N5        30.10F
COVINGTON      SUNNY     77  63  61 VRB5      30.11F
UNION CITY     SUNNY     79  57  47 VRB3G12   30.10F
BOLIVAR        SUNNY     77  63  61 CALM      30.10F
HUNTINGDON     MOSUNNY   77  61  57 E6        30.11S
LEXINGTON      SUNNY     75  59  57 CALM      30.11F
SELMER         SUNNY     75  61  60 NE5       30.11F
SAVANNAH       SUNNY     79  63  57 VRB5      30.11S
$$

TNZ008-025-027-028-033-062-065-066-271900-
NORTH MIDDLE TENNESSEE

CITY           SKY/WX    TMP DP  RH WIND       PRES   REMARKS
NASHVILLE      MOSUNNY   82  53  36 N3        30.13F
PORTLAND       MOSUNNY   75  55  50 CALM      30.13S
CLARKSVILLE    SUNNY     79  54  41 NE8       30.12F
SMYRNA         MOSUNNY   79  57  46 NE6       30.13F
COOKEVILLE     SUNNY     75  57  53 CALM      30.13F
GALLATIN       MOSUNNY   79  55  44 VRB6      30.15S
CROSSVILLE     SUNNY     73  51  46 VRB7      30.17F
$$

TNZ061-075-076-078-094-096-097-271900-
SOUTH MIDDLE TENNESSEE

CITY           SKY/WX    TMP DP  RH WIND       PRES   REMARKS
FAYETTEVILLE   SUNNY     75  57  53 VRB3G12   30.13S
TULLAHOMA      SUNNY     73  50  43 NE8       30.15S
WINCHESTER     SUNNY     75  54  46 NE8       30.14S
MCMINNVILLE    SUNNY     75  57  53 NE3       30.14F
COLUMBIA       SUNNY     75  55  50 NE6       30.10F
SHELBYVILLE    SUNNY     75  55  50 NE6       30.13F
$$

TNZ017-018-042-046-047-271900-
NORTHEAST TENNESSEE

CITY           SKY/WX    TMP DP  RH WIND       PRES   REMARKS
TRI CITIES     PTSUNNY   71  51  49 VRB5      30.15S
ELIZABETHTON   PTSUNNY   70  54  56 W6        30.16R
$$

TNZ012-013-036-069-073-074-271900-
CENTRAL EAST TENNESSEE

CITY           SKY/WX    TMP DP  RH WIND       PRES   REMARKS
KNOXVILLE      CLOUDY    75  53  46 NE8       30.13S
OAK RIDGE      MOSUNNY   76  51  41 VRB3      30.14F
DOWNTOWN KNOXV SUNNY     75  57  53 VRB3      30.13S
GATLINBURG     SUNNY     73  50  43 VRB6      30.13F
MORRISTOWN     SUNNY     73  50  43 N6        30.14F
JACKSBORO      MOSUNNY   73  54  49 SW5       30.17F
$$

TNZ083-085-099-271900-
SOUTHEAST TENNESSEE

CITY           SKY/WX    TMP DP  RH WIND       PRES   REMARKS
CHATTANOOGA    PTSUNNY   79  54  41 NE9       30.12F
DAYTON         CLEAR     75  55  50 VRB7      30.12F
$$

SKY/WX REPORTED AS FAIR MEANS FEW OR NO CLOUDS BELOW
12 THOUSAND FEET.





USA.gov is the U.S. government's official web portal to all federal, state and local government web resources and services.